Location: Rounton
(54.4000°N, 1.3500°W)
Time: 02:42:47
(UTC+00:00)

A-11 Canister half - Pass Details

Date: 01 December 2021
Orbit: 1524 x 1684 km, 47.3° (Epoch: 19 January)

Event Time Altitude Azimuth Distance (km) Brightness Sun altitude
Exits shadow 04:23:10 45° 215° (SW) 2,166 9.4 -30.8°
Maximum altitude 04:25:56 56° 170° (S) 1,920 9.4 -30.4°
Drops below altitude 10° 04:35:27 10° 96° (E) 3,849 12.0 -29.0°
Sets 04:38:35 0° 92° (E) 4,814 12.9 -28.5°
